Back to catalog

JILIN-1 GAOFEN 07B 04 XING

AliveScienceSSO
NORAD 68696·PAYLOAD·🇨🇳 China
This satellite name has not been confirmed by official sources yet.

Launched Apr 14, 2026 from Jiuquan Satellite Launch Center

Loading…

Next Passes (next 24 hours)

TLE

FreshSource: Space-Track

Epoch: Sep 14, 2026, 15:21 UTC

1 68696U 26080F   26257.64018363  .00004417  00000-0  28318-3 0  9995
2 68696  97.6542 333.0492 0015724 125.5870 234.6827 15.08935390 23113

Track JILIN-1 GAOFEN 07B 04 XING in real time with AllMySat

Download on the App Store